Wahpeton, MN

2:32 AM CDT on October 15, 2019 (GMT -0500)
Stern

Weather History for KBWP - August, 2019

Change the Weather History Date:

Thursday, August 8, 2019

  Actual Average (KFFM) Record (KFFM)
Temperature  
Mean Temperature 60 °F -  
Max Temperature 73 °F 81 °F 99 °F (1983)
Min Temperature 46 °F 59 °F 48 °F (1964)
Degree Days  
Heating Degree Days 6    
Growing Degree Days 10 (Base 50)    
Moisture  
Dew Point 46 °F    
Average Humidity 64    
Maximum Humidity 93    
Minimum Humidity 33    
Precipitation  
Precipitation 0.00 in - - ()
Sea Level Pressure  
Sea Level Pressure 29.97 in    
Wind  
Wind Speed 6 mph (WNW)    
Max Wind Speed 15 mph    
Max Gust Speed 21 mph    
Visibility 10 miles    
Events      
Averages and records for this station are not official NWS values.
T = Trace of Precipitation, MM = Missing Value Source: NWS Daily Summary

Daily Weather History Graph

Daily Weather History Graph

Search for Another Location

Airport or City:

Astronomy

Aug. 08, 2019 Rise Set
Actual Time 6:16 AM CDT 8:46 PM CDT
Civil Twilight 5:42 AM CDT 9:20 PM CDT
Nautical Twilight 5:00 AM CDT 10:02 PM CDT
Astronomical Twilight 4:11 AM CDT 10:50 PM CDT
Moon 3:24 PM CDT (8/8) 12:41 AM CDT (8/8)
Length of Visible Light 15h 37m
Length of Day
14h 30m
First Quarter, 60% of the Moon is Illuminated
Aug 8
First Quarter
Aug 15
Full
Aug 23
Last Quarter
Aug 30
New
Sep 5
First Quarter

Hourly Weather History & Observations

Time (CDT) Temp. Windchill Dew Point Humidity Pressure Visibility Wind Dir Wind Speed Gust Speed Precip Events Conditions
12:15 AM 51.8 °F - 46.4 °F 82% 29.95 in 10.0 mi West 5.8 mph - N/A   Clear
12:35 AM 51.8 °F - 46.4 °F 82% 29.95 in 10.0 mi WNW 4.6 mph - N/A   Clear
12:55 AM 51.8 °F - 46.4 °F 82% 29.95 in 10.0 mi Calm Calm - N/A   Clear
1:15 AM 51.8 °F - 48.2 °F 88% 29.94 in 10.0 mi Calm Calm - N/A   Clear
1:35 AM 50.0 °F - 46.4 °F 87% 29.94 in 10.0 mi WSW 4.6 mph - N/A   Clear
1:55 AM 50.0 °F - 46.4 °F 87% 29.94 in 10.0 mi WSW 4.6 mph - N/A   Clear
2:15 AM 50.0 °F - 44.6 °F 82% 29.94 in 10.0 mi WSW 4.6 mph - N/A   Clear
2:35 AM 50.0 °F - 46.4 °F 87% 29.94 in 10.0 mi WSW 4.6 mph - N/A   Clear
2:55 AM 50.0 °F - 46.4 °F 87% 29.95 in 10.0 mi WSW 4.6 mph - N/A   Clear
3:15 AM 50.0 °F - 46.4 °F 87% 29.95 in 10.0 mi WSW 5.8 mph - N/A   Clear
3:35 AM 48.2 °F - 44.6 °F 87% 29.95 in 10.0 mi WSW 4.6 mph - N/A   Clear
3:55 AM 46.4 °F - 44.6 °F 93% 29.95 in 10.0 mi Calm Calm - N/A   Clear
4:15 AM 48.2 °F - 44.6 °F 87% 29.95 in 10.0 mi Calm Calm - N/A   Clear
4:35 AM 48.2 °F - 44.6 °F 87% 29.95 in 10.0 mi West 4.6 mph - N/A   Clear
4:55 AM 46.4 °F 44.3 °F 44.6 °F 93% 29.95 in 10.0 mi West 4.6 mph - N/A   Clear
5:15 AM 48.2 °F - 44.6 °F 87% 29.95 in 10.0 mi West 3.5 mph - N/A   Clear
5:35 AM 46.4 °F 44.3 °F 44.6 °F 93% 29.95 in 10.0 mi West 4.6 mph - N/A   Clear
5:55 AM 46.4 °F 44.3 °F 42.8 °F 87% 29.95 in 10.0 mi West 4.6 mph - N/A   Clear
6:15 AM 46.4 °F 43.5 °F 42.8 °F 87% 29.95 in 10.0 mi WSW 5.8 mph - N/A   Clear
6:35 AM 46.4 °F 45.2 °F 42.8 °F 87% 29.96 in 10.0 mi West 3.5 mph - N/A   Clear
6:55 AM 46.4 °F 45.2 °F 44.6 °F 93% 29.96 in 10.0 mi West 3.5 mph - N/A   Clear
7:15 AM 48.2 °F - 44.6 °F 87% 29.96 in 10.0 mi Calm Calm - N/A   Clear
7:35 AM 50.0 °F - 46.4 °F 87% 29.97 in 10.0 mi Calm Calm - N/A   Clear
7:55 AM 53.6 °F - 50.0 °F 88% 29.98 in 10.0 mi West 4.6 mph - N/A   Clear
8:35 AM 55.4 °F - 50.0 °F 82% 29.99 in 10.0 mi WNW 6.9 mph - N/A   Clear
8:55 AM 59.0 °F - 51.8 °F 77% 29.99 in 10.0 mi NW 4.6 mph - N/A   Clear
9:15 AM 60.8 °F - 51.8 °F 72% 29.99 in 10.0 mi NW 6.9 mph - N/A   Clear
9:35 AM 60.8 °F - 51.8 °F 72% 29.99 in 10.0 mi NW 8.1 mph - N/A   Clear
9:55 AM 62.6 °F - 51.8 °F 68% 29.99 in 10.0 mi NW 6.9 mph - N/A   Clear
10:15 AM 64.4 °F - 50.0 °F 59% 30.00 in 10.0 mi NNW 8.1 mph - N/A   Clear
10:35 AM 66.2 °F - 48.2 °F 52% 30.00 in 10.0 mi NW 6.9 mph - N/A   Clear
10:55 AM 68.0 °F - 46.4 °F 46% 30.00 in 10.0 mi NW 10.4 mph - N/A   Clear
11:15 AM 68.0 °F - 46.4 °F 46% 30.00 in 10.0 mi NW 11.5 mph - N/A   Clear
11:35 AM 69.8 °F - 44.6 °F 40% 30.00 in 10.0 mi North 12.7 mph - N/A   Clear
11:55 AM 69.8 °F - 44.6 °F 40% 30.00 in 10.0 mi NW 11.5 mph 18.4 mph N/A   Clear
12:15 PM 69.8 °F - 44.6 °F 40% 30.00 in 10.0 mi NW 9.2 mph - N/A   Clear
12:35 PM 69.8 °F - 46.4 °F 43% 30.00 in 10.0 mi WNW 13.8 mph - N/A   Clear
12:55 PM 71.6 °F - 46.4 °F 41% 30.00 in 10.0 mi WNW 11.5 mph 19.6 mph N/A   Clear
1:15 PM 71.6 °F - 46.4 °F 41% 30.00 in 10.0 mi WNW 10.4 mph 16.1 mph N/A   Clear
1:35 PM 71.6 °F - 46.4 °F 41% 29.99 in 10.0 mi NNW 15.0 mph 20.7 mph N/A   Scattered Clouds
1:55 PM 71.6 °F - 44.6 °F 38% 29.99 in 10.0 mi NW 10.4 mph - N/A   Clear
2:15 PM 71.6 °F - 44.6 °F 38% 29.99 in 10.0 mi NW 13.8 mph 18.4 mph N/A   Clear
2:35 PM 71.6 °F - 44.6 °F 38% 29.99 in 10.0 mi NW 15.0 mph 20.7 mph N/A   Clear
2:55 PM 71.6 °F - 44.6 °F 38% 29.99 in 10.0 mi NNW 11.5 mph - N/A   Clear
3:15 PM 71.6 °F - 42.8 °F 35% 29.99 in 10.0 mi NW 10.4 mph 18.4 mph N/A   Clear
3:35 PM 71.6 °F - 42.8 °F 35% 29.99 in 10.0 mi NW 12.7 mph - N/A   Clear
3:55 PM 73.4 °F - 42.8 °F 33% 29.98 in 10.0 mi NNW 10.4 mph 16.1 mph N/A   Clear
4:15 PM 71.6 °F - 42.8 °F 35% 29.98 in 10.0 mi NW 10.4 mph - N/A   Clear
4:35 PM 71.6 °F - 42.8 °F 35% 29.98 in 10.0 mi NW 10.4 mph - N/A   Clear
4:55 PM 71.6 °F - 42.8 °F 35% 29.97 in 10.0 mi NNW 13.8 mph - N/A   Clear
5:15 PM 71.6 °F - 42.8 °F 35% 29.97 in 10.0 mi NW 8.1 mph - N/A   Clear
5:35 PM 71.6 °F - 44.6 °F 38% 29.97 in 10.0 mi NNW 10.4 mph - N/A   Clear
5:55 PM 71.6 °F - 44.6 °F 38% 29.97 in 10.0 mi NNW 9.2 mph - N/A   Clear
6:15 PM 71.6 °F - 42.8 °F 35% 29.96 in 10.0 mi NW 13.8 mph 18.4 mph N/A   Clear
6:35 PM 71.6 °F - 42.8 °F 35% 29.96 in 10.0 mi NW 11.5 mph - N/A   Clear
6:55 PM 71.6 °F - 44.6 °F 38% 29.95 in 10.0 mi NW 10.4 mph - N/A   Clear
7:15 PM 69.8 °F - 46.4 °F 43% 29.95 in 10.0 mi NW 9.2 mph - N/A   Clear
7:35 PM 69.8 °F - 46.4 °F 43% 29.96 in 10.0 mi NNW 5.8 mph - N/A   Clear
7:55 PM 68.0 °F - 46.4 °F 46% 29.96 in 10.0 mi NW 4.6 mph - N/A   Clear
8:15 PM 66.2 °F - 50.0 °F 56% 29.96 in 10.0 mi WNW 4.6 mph - N/A   Clear
8:35 PM 64.4 °F - 51.8 °F 64% 29.96 in 10.0 mi WNW 4.6 mph - N/A   Clear
8:55 PM 60.8 °F - 51.8 °F 72% 29.96 in 10.0 mi WNW 4.6 mph - N/A   Clear
9:15 PM 60.8 °F - 51.8 °F 72% 29.97 in 10.0 mi Calm Calm - N/A   Clear
9:35 PM 60.8 °F - 50.0 °F 68% 29.98 in 10.0 mi Calm Calm - N/A   Clear
9:55 PM 59.0 °F - 50.0 °F 72% 29.99 in 10.0 mi Calm Calm - N/A   Clear
10:15 PM 59.0 °F - 50.0 °F 72% 29.99 in 10.0 mi Calm Calm - N/A   Clear
10:35 PM 59.0 °F - 50.0 °F 72% 29.99 in 10.0 mi Calm Calm - N/A   Clear
10:55 PM 55.4 °F - 50.0 °F 82% 29.99 in 10.0 mi Calm Calm - N/A   Clear
11:15 PM 53.6 °F - 50.0 °F 88% 29.99 in 10.0 mi SSW 3.5 mph - N/A   Clear
11:35 PM 53.6 °F - 50.0 °F 88% 29.99 in 10.0 mi Calm Calm - N/A   Clear
11:55 PM 53.6 °F - 50.0 °F 88% 29.99 in 10.0 mi Calm Calm - N/A   Clear